TOM888 LESO-LFRB

Flight info

Callsign TOM888
Flight time 1h 9m
Altitude 28000
Route BTZ DCT GALOF DCT TOFLO DCT QPR
Aircraft B738/M-SDE2E3FGHIRWXY/LB1

Departure

Time 2026-04-19 07:57
Airport San Sebastián Airport (LESO)

Arrival

Time 2026-04-19 09:06
Airport Brest Bretagne airport (LFRB)
Time Latitude Longitude Altitude Speed Heading
2026-04-19 06:58 43.35595 -1.79277 18 ft 0 kts 39°
2026-04-19 07:49 43.35587 -1.79285 16 ft 4 kts 39°
2026-04-19 07:49 43.35586 -1.79286 16 ft 1 kts 39°
2026-04-19 07:53 43.35590 -1.79282 16 ft 2 kts 38°
2026-04-19 07:53 43.35607 -1.79266 16 ft 5 kts 33°
2026-04-19 07:53 43.35644 -1.79230 16 ft 8 kts 46°
2026-04-19 07:53 43.35649 -1.79190 18 ft 1 kts 104°
2026-04-19 07:54 43.35645 -1.79179 18 ft 1 kts 116°
2026-04-19 07:54 43.35638 -1.79165 17 ft 5 kts 128°
2026-04-19 07:54 43.35580 -1.79139 17 ft 13 kts 213°
2026-04-19 07:54 43.35485 -1.79243 18 ft 24 kts 219°
2026-04-19 07:55 43.35324 -1.79419 19 ft 33 kts 218°
2026-04-19 07:55 43.35147 -1.79614 19 ft 32 kts 219°
2026-04-19 07:55 43.35082 -1.79741 19 ft 8 kts 234°
2026-04-19 07:55 43.35051 -1.79735 19 ft 5 kts 124°
2026-04-19 07:56 43.35065 -1.79703 19 ft 1 kts 38°
2026-04-19 07:56 43.35070 -1.79697 20 ft 1 kts 38°
2026-04-19 07:56 43.35129 -1.79632 18 ft 41 kts 39°
2026-04-19 07:56 43.35613 -1.79101 17 ft 133 kts 39°
2026-04-19 07:57 43.36460 -1.78180 516 ft 161 kts 38°
2026-04-19 07:57 43.37405 -1.77436 1669 ft 156 kts 20°
2026-04-19 07:57 43.38475 -1.76866 2350 ft 178 kts 24°
2026-04-19 07:57 43.39726 -1.76116 2734 ft 209 kts 26°
2026-04-19 07:58 43.41089 -1.75284 3385 ft 218 kts 25°
2026-04-19 07:58 43.42483 -1.74394 4149 ft 221 kts 32°
2026-04-19 07:58 43.43496 -1.72844 4928 ft 223 kts 69°
2026-04-19 07:58 43.43657 -1.70740 5621 ft 226 kts 103°
2026-04-19 07:59 43.43063 -1.68767 6318 ft 230 kts 114°
2026-04-19 07:59 43.42817 -1.66570 6963 ft 239 kts 84°
2026-04-19 07:59 43.43259 -1.64377 7725 ft 239 kts 68°
2026-04-19 07:59 43.43847 -1.62225 8459 ft 241 kts 69°
2026-04-19 08:00 43.44420 -1.60042 9206 ft 244 kts 69°
2026-04-19 08:00 43.44987 -1.57828 9955 ft 246 kts 69°
2026-04-19 08:00 43.45551 -1.55591 10646 ft 249 kts 69°
2026-04-19 08:00 43.46287 -1.53437 11265 ft 250 kts 48°
2026-04-19 08:01 43.47592 -1.51945 11907 ft 249 kts 28°
2026-04-19 08:01 43.49258 -1.51034 12149 ft 271 kts
2026-04-19 08:01 43.51234 -1.51016 12429 ft 299 kts 355°
2026-04-19 08:01 43.53418 -1.51178 12694 ft 330 kts 354°
2026-04-19 08:02 43.55815 -1.51385 12957 ft 359 kts 354°
2026-04-19 08:02 43.58351 -1.51594 13660 ft 369 kts 354°
2026-04-19 08:02 43.60935 -1.51789 14500 ft 374 kts 355°
2026-04-19 08:02 43.63550 -1.51971 15270 ft 379 kts 355°
2026-04-19 08:03 43.66165 -1.52141 15951 ft 384 kts 355°
2026-04-19 08:03 43.68845 -1.52308 16665 ft 388 kts 355°
2026-04-19 08:03 43.71557 -1.52473 17386 ft 392 kts 355°
2026-04-19 08:03 43.74291 -1.52637 18089 ft 396 kts 355°
2026-04-19 08:04 43.77050 -1.52802 18734 ft 400 kts 355°
2026-04-19 08:04 43.79846 -1.52969 19327 ft 404 kts 354°
2026-04-19 08:04 43.82665 -1.53137 19959 ft 407 kts 354°
2026-04-19 08:04 43.85505 -1.53306 20576 ft 410 kts 354°
2026-04-19 08:05 43.88328 -1.53475 21163 ft 413 kts 354°
2026-04-19 08:05 43.91214 -1.53647 21741 ft 417 kts 354°
2026-04-19 08:05 43.94120 -1.53822 22309 ft 420 kts 354°
2026-04-19 08:05 43.97053 -1.53998 22869 ft 423 kts 354°
2026-04-19 08:06 44.00009 -1.54175 23421 ft 427 kts 354°
2026-04-19 08:06 44.02988 -1.54354 23942 ft 430 kts 354°
2026-04-19 08:06 44.05983 -1.54534 24429 ft 432 kts 353°
2026-04-19 08:06 44.08952 -1.54712 24897 ft 434 kts 353°
2026-04-19 08:07 44.11972 -1.54894 25346 ft 436 kts 353°
2026-04-19 08:07 44.15013 -1.55078 25778 ft 439 kts 353°
2026-04-19 08:07 44.18072 -1.55263 26207 ft 441 kts 353°
2026-04-19 08:07 44.21147 -1.55449 26625 ft 443 kts 353°
2026-04-19 08:08 44.24238 -1.55636 27045 ft 446 kts 353°
2026-04-19 08:08 44.27340 -1.55823 27515 ft 446 kts 353°
2026-04-19 08:08 44.30434 -1.56009 28098 ft 444 kts 353°
2026-04-19 08:09 44.36609 -1.56384 28170 ft 447 kts 353°
2026-04-19 08:09 44.42767 -1.56755 28193 ft 441 kts 352°
2026-04-19 08:10 44.48912 -1.57131 28184 ft 443 kts 352°
2026-04-19 08:10 44.55076 -1.57509 28182 ft 444 kts 352°
2026-04-19 08:11 44.61207 -1.57885 28199 ft 444 kts 352°
2026-04-19 08:11 44.67372 -1.58263 28183 ft 443 kts 352°
2026-04-19 08:12 44.73525 -1.58641 28182 ft 442 kts 352°
2026-04-19 08:12 44.79657 -1.59018 28188 ft 440 kts 352°
2026-04-19 08:13 44.85733 -1.59394 28190 ft 440 kts 352°
2026-04-19 08:13 44.91847 -1.59773 28194 ft 440 kts 352°
2026-04-19 08:14 44.97964 -1.60153 28193 ft 440 kts 352°
2026-04-19 08:14 45.07144 -1.60724 28199 ft 440 kts 352°
2026-04-19 08:15 45.13223 -1.61103 28199 ft 440 kts 352°
2026-04-19 08:15 45.19336 -1.61485 28217 ft 439 kts 352°
2026-04-19 08:16 45.25437 -1.61867 28207 ft 439 kts 352°
2026-04-19 08:16 45.31527 -1.62249 28207 ft 437 kts 352°
2026-04-19 08:17 45.37565 -1.62629 28230 ft 437 kts 352°
2026-04-19 08:17 45.43634 -1.63012 28212 ft 437 kts 352°
2026-04-19 08:18 45.49702 -1.63395 28218 ft 436 kts 352°
2026-04-19 08:18 45.55769 -1.63780 28229 ft 436 kts 352°
2026-04-19 08:19 45.61793 -1.64162 28234 ft 436 kts 352°
2026-04-19 08:19 45.67858 -1.64547 28227 ft 436 kts 352°
2026-04-19 08:20 45.73916 -1.64933 28231 ft 435 kts 351°
2026-04-19 08:20 45.79965 -1.65320 28240 ft 435 kts 351°
2026-04-19 08:21 45.85973 -1.65704 28241 ft 435 kts 351°
2026-04-19 08:21 45.91940 -1.66572 28235 ft 424 kts 338°
2026-04-19 08:22 45.97093 -1.70301 28255 ft 411 kts 317°
2026-04-19 08:22 46.01345 -1.75669 28244 ft 409 kts 314°
2026-04-19 08:23 46.05598 -1.81125 28244 ft 409 kts 315°
2026-04-19 08:23 46.09867 -1.86565 28247 ft 410 kts 315°
2026-04-19 08:24 46.14142 -1.91995 28253 ft 410 kts 315°
2026-04-19 08:24 46.18394 -1.97395 28260 ft 410 kts 315°
2026-04-19 08:25 46.22672 -2.02839 28248 ft 410 kts 315°
2026-04-19 08:25 46.26945 -2.08288 28262 ft 410 kts 315°
2026-04-19 08:26 46.31217 -2.13749 28261 ft 410 kts 315°
2026-04-19 08:26 46.35460 -2.19184 28273 ft 410 kts 315°
2026-04-19 08:27 46.39730 -2.24665 28269 ft 410 kts 315°
2026-04-19 08:27 46.43994 -2.30151 28267 ft 410 kts 315°
2026-04-19 08:28 46.48255 -2.35645 28265 ft 410 kts 315°
2026-04-19 08:28 46.52482 -2.41107 28265 ft 409 kts 315°
2026-04-19 08:29 46.56735 -2.46615 28289 ft 410 kts 315°
2026-04-19 08:29 46.60982 -2.52128 28268 ft 410 kts 315°
2026-04-19 08:30 46.65232 -2.57655 28272 ft 410 kts 314°
2026-04-19 08:30 46.69451 -2.63156 28273 ft 410 kts 314°
2026-04-19 08:31 46.73692 -2.68695 28279 ft 410 kts 314°
2026-04-19 08:31 46.77932 -2.74246 28280 ft 410 kts 314°
2026-04-19 08:32 46.82169 -2.79806 28282 ft 409 kts 314°
2026-04-19 08:32 46.86401 -2.85372 28275 ft 409 kts 314°
2026-04-19 08:33 46.90606 -2.90915 28281 ft 410 kts 314°
2026-04-19 08:33 46.94842 -2.96510 28296 ft 411 kts 314°
2026-04-19 08:34 46.99083 -3.02125 28281 ft 411 kts 314°
2026-04-19 08:34 47.03328 -3.07757 28285 ft 412 kts 314°
2026-04-19 08:35 47.07542 -3.13360 28281 ft 411 kts 314°
2026-04-19 08:35 47.11777 -3.19005 28280 ft 411 kts 314°
2026-04-19 08:36 47.16010 -3.24660 28284 ft 412 kts 315°
2026-04-19 08:36 47.20252 -3.30339 28279 ft 413 kts 315°
2026-04-19 08:37 47.24470 -3.35999 28285 ft 414 kts 314°
2026-04-19 08:37 47.28720 -3.41714 28297 ft 414 kts 314°
2026-04-19 08:38 47.32967 -3.47439 28286 ft 414 kts 314°
2026-04-19 08:38 47.37247 -3.53225 28310 ft 423 kts 315°
2026-04-19 08:39 47.41573 -3.59083 28288 ft 424 kts 315°
2026-04-19 08:39 47.45902 -3.64955 28294 ft 421 kts 315°
2026-04-19 08:40 47.50213 -3.70819 28298 ft 421 kts 315°
2026-04-19 08:40 47.54519 -3.76693 28292 ft 422 kts 315°
2026-04-19 08:41 47.58860 -3.82629 28310 ft 432 kts 315°
2026-04-19 08:41 47.63260 -3.88656 28292 ft 430 kts 315°
2026-04-19 08:42 47.67622 -3.94646 27808 ft 421 kts 315°
2026-04-19 08:42 47.69751 -3.97575 27292 ft 414 kts 315°
2026-04-19 08:42 47.71847 -4.00462 26756 ft 408 kts 315°
2026-04-19 08:43 47.73889 -4.03278 26248 ft 404 kts 315°
2026-04-19 08:43 47.75933 -4.06100 25722 ft 400 kts 315°
2026-04-19 08:43 47.78014 -4.08811 25195 ft 397 kts 322°
2026-04-19 08:43 47.80345 -4.10999 24686 ft 396 kts 330°
2026-04-19 08:44 47.82862 -4.12636 24188 ft 395 kts 339°
2026-04-19 08:44 47.85482 -4.13821 23661 ft 393 kts 341°
2026-04-19 08:44 47.88093 -4.14977 23081 ft 389 kts 341°
2026-04-19 08:44 47.90672 -4.16149 22567 ft 385 kts 340°
2026-04-19 08:45 47.93299 -4.16880 22032 ft 389 kts 358°
2026-04-19 08:45 47.95924 -4.16212 21589 ft 391 kts 17°
2026-04-19 08:45 47.98357 -4.14375 21077 ft 398 kts 34°
2026-04-19 08:45 48.00418 -4.11555 20605 ft 405 kts 43°
2026-04-19 08:46 48.02374 -4.08522 20081 ft 405 kts 45°
2026-04-19 08:46 48.04295 -4.05472 19567 ft 401 kts 45°
2026-04-19 08:46 48.06198 -4.02453 19064 ft 398 kts 45°
2026-04-19 08:46 48.08096 -3.99469 18567 ft 394 kts 45°
2026-04-19 08:47 48.09986 -3.96518 18013 ft 391 kts 44°
2026-04-19 08:47 48.11792 -3.93712 17497 ft 388 kts 45°
2026-04-19 08:47 48.13655 -3.90821 16983 ft 384 kts 45°
2026-04-19 08:47 48.15507 -3.87951 16451 ft 382 kts 45°
2026-04-19 08:48 48.17340 -3.85104 15988 ft 378 kts 45°
2026-04-19 08:48 48.19157 -3.82281 15520 ft 375 kts 45°
2026-04-19 08:48 48.20962 -3.79474 15064 ft 372 kts 45°
2026-04-19 08:48 48.22746 -3.76695 14612 ft 369 kts 45°
2026-04-19 08:49 48.24517 -3.73934 14176 ft 366 kts 45°
2026-04-19 08:49 48.26378 -3.71366 13667 ft 362 kts 32°
2026-04-19 08:49 48.28637 -3.69965 13240 ft 354 kts
2026-04-19 08:49 48.31065 -3.69861 12784 ft 347 kts 348°
2026-04-19 08:50 48.33318 -3.70976 12375 ft 339 kts 329°
2026-04-19 08:50 48.35174 -3.73084 11923 ft 333 kts 313°
2026-04-19 08:50 48.36539 -3.75867 11464 ft 332 kts 295°
2026-04-19 08:50 48.37379 -3.79094 11154 ft 330 kts 288°
2026-04-19 08:51 48.38068 -3.82350 10965 ft 324 kts 286°
2026-04-19 08:51 48.38720 -3.85584 10619 ft 319 kts 286°
2026-04-19 08:51 48.39354 -3.88733 10423 ft 310 kts 286°
2026-04-19 08:51 48.39965 -3.91744 10290 ft 300 kts 286°
2026-04-19 08:52 48.40568 -3.94690 10149 ft 290 kts 287°
2026-04-19 08:52 48.41157 -3.97551 10011 ft 282 kts 287°
2026-04-19 08:52 48.41728 -4.00312 9866 ft 273 kts 287°
2026-04-19 08:52 48.42297 -4.03059 9518 ft 274 kts 287°
2026-04-19 08:53 48.42863 -4.05789 9232 ft 272 kts 287°
2026-04-19 08:53 48.43236 -4.07587 9024 ft 272 kts 287°
2026-04-19 08:53 48.43797 -4.10293 8735 ft 270 kts 287°
2026-04-19 08:53 48.44354 -4.12982 8468 ft 268 kts 287°
2026-04-19 08:54 48.45087 -4.16522 8095 ft 266 kts 288°
2026-04-19 08:54 48.45635 -4.19179 7823 ft 265 kts 288°
2026-04-19 08:54 48.46180 -4.21821 7558 ft 264 kts 288°
2026-04-19 08:54 48.46724 -4.24456 7276 ft 263 kts 288°
2026-04-19 08:55 48.47082 -4.26196 7110 ft 262 kts 288°
2026-04-19 08:55 48.47621 -4.28814 6828 ft 261 kts 288°
2026-04-19 08:55 48.48157 -4.31423 6546 ft 260 kts 288°
2026-04-19 08:55 48.48692 -4.34029 6257 ft 260 kts 288°
2026-04-19 08:56 48.49399 -4.37474 5892 ft 259 kts 288°
2026-04-19 08:56 48.49757 -4.39226 5715 ft 259 kts 288°
2026-04-19 08:56 48.50286 -4.41810 5491 ft 256 kts 288°
2026-04-19 08:56 48.50803 -4.44340 5377 ft 249 kts 288°
2026-04-19 08:57 48.51298 -4.46770 5265 ft 242 kts 288°
2026-04-19 08:57 48.51785 -4.49163 5151 ft 235 kts 288°
2026-04-19 08:57 48.52257 -4.51486 5051 ft 228 kts 288°
2026-04-19 08:57 48.52562 -4.53800 4913 ft 227 kts 265°
2026-04-19 08:58 48.52129 -4.56057 4819 ft 221 kts 249°
2026-04-19 08:58 48.51625 -4.58210 4668 ft 214 kts 250°
2026-04-19 08:58 48.51146 -4.60302 4485 ft 209 kts 250°
2026-04-19 08:58 48.50676 -4.62364 4337 ft 208 kts 250°
2026-04-19 08:59 48.50205 -4.64425 4205 ft 208 kts 250°
2026-04-19 08:59 48.49740 -4.66462 4058 ft 208 kts 250°
2026-04-19 08:59 48.49271 -4.68519 3908 ft 208 kts 250°
2026-04-19 08:59 48.48586 -4.70365 3746 ft 199 kts 218°
2026-04-19 09:00 48.47366 -4.71118 3644 ft 187 kts 184°
2026-04-19 09:00 48.46064 -4.71187 3526 ft 189 kts 175°
2026-04-19 09:00 48.44736 -4.71132 3394 ft 193 kts 174°
2026-04-19 09:00 48.43387 -4.71075 3249 ft 193 kts 175°
2026-04-19 09:01 48.42089 -4.71013 3091 ft 184 kts 171°
2026-04-19 09:01 48.40997 -4.70313 2943 ft 165 kts 129°
2026-04-19 09:01 48.40444 -4.68830 2865 ft 165 kts 101°
2026-04-19 09:01 48.40251 -4.67154 2759 ft 161 kts 98°
2026-04-19 09:02 48.40075 -4.65512 2650 ft 158 kts 97°
2026-04-19 09:02 48.39905 -4.63873 2517 ft 158 kts 94°
2026-04-19 09:02 48.40130 -4.62285 2423 ft 156 kts 69°
2026-04-19 09:02 48.40505 -4.60742 2304 ft 158 kts 71°
2026-04-19 09:03 48.40859 -4.59187 2194 ft 156 kts 71°
2026-04-19 09:03 48.41201 -4.57676 2073 ft 152 kts 71°
2026-04-19 09:03 48.41533 -4.56206 1934 ft 145 kts 71°
2026-04-19 09:03 48.41855 -4.54786 1754 ft 143 kts 71°
2026-04-19 09:04 48.42178 -4.53360 1597 ft 146 kts 71°
2026-04-19 09:04 48.42501 -4.51934 1451 ft 139 kts 71°
2026-04-19 09:04 48.42808 -4.50580 1218 ft 134 kts 71°
2026-04-19 09:04 48.43098 -4.49258 1041 ft 133 kts 71°
2026-04-19 09:05 48.43399 -4.47906 908 ft 140 kts 71°
2026-04-19 09:05 48.43718 -4.46508 747 ft 142 kts 69°
2026-04-19 09:05 48.44042 -4.45114 537 ft 143 kts 69°
2026-04-19 09:05 48.44364 -4.43715 329 ft 138 kts 69°
2026-04-19 09:06 48.44648 -4.42462 313 ft 109 kts 71°
2026-04-19 09:06 48.44844 -4.41591 330 ft 66 kts 71°
2026-04-19 09:06 48.44951 -4.41120 322 ft 40 kts 71°
2026-04-19 09:06 48.45034 -4.40763 321 ft 20 kts 58°
2026-04-19 09:07 48.45062 -4.40677 323 ft 8 kts 144°
2026-04-19 09:07 48.45029 -4.40740 322 ft 13 kts 258°
2026-04-19 09:07 48.44989 -4.40954 321 ft 29 kts 250°
2026-04-19 09:07 48.44911 -4.41301 323 ft 40 kts 251°
2026-04-19 09:08 48.44831 -4.41643 334 ft 14 kts 233°
2026-04-19 09:08 48.44740 -4.41629 332 ft 14 kts 161°
2026-04-19 09:08 48.44659 -4.41661 330 ft 13 kts 240°
2026-04-19 09:08 48.44627 -4.41790 327 ft 13 kts 251°
2026-04-19 09:09 48.44605 -4.41885 330 ft 3 kts 250°
2026-04-19 09:09 48.44603 -4.41898 331 ft 1 kts 251°
2026-04-19 09:09 48.44599 -4.41911 327 ft 2 kts 251°
2026-04-19 09:09 48.44596 -4.41928 329 ft 2 kts 251°
2026-04-19 09:10 48.44591 -4.41947 329 ft 2 kts 251°
2026-04-19 09:10 48.44584 -4.41967 328 ft 2 kts 235°
2026-04-19 09:10 48.44572 -4.41981 330 ft 2 kts 210°
2026-04-19 09:10 48.44554 -4.41984 331 ft 5 kts 176°
2026-04-19 09:11 48.44515 -4.42024 329 ft 7 kts 245°
2026-04-19 09:11 48.44485 -4.42064 331 ft 4 kts 180°
2026-04-19 09:11 48.44457 -4.42052 331 ft 4 kts 161°
2026-04-19 09:11 48.44437 -4.42041 328 ft 2 kts 161°
2026-04-19 09:12 48.44428 -4.42037 329 ft 1 kts 161°
2026-04-19 09:12 48.44427 -4.42036 329 ft 0 kts 161°